Location: Moondance
(40.1328°N, 106.5113°W)
Time: 19:34:59
(UTC-07:00)

OTV 5 (USA 277) - Visible Passes

Search period start: 18 November 2018 00:00
Search period end: 28 November 2018 00:00
Orbit: 339 x 348 km, 54.5° (Epoch: 14 November)

Date Brightness Start Highest point End Pass type
(mag) Time Alt. Az. Time Alt. Az. Time Alt. Az.
22 Nov ? 06:29:23 10° S 06:31:21 17° SE 06:33:19 10° E visible
24 Nov ? 05:41:39 10° S 05:43:32 16° SE 05:45:25 10° E visible
25 Nov ? 06:04:01 10° SW 06:06:49 61° SE 06:09:40 10° NE visible
26 Nov ? 04:54:51 14° SSE 04:55:41 15° SE 04:57:28 10° E visible
26 Nov ? 06:27:41 10° WSW 06:30:21 35° NW 06:33:01 10° NNE visible
27 Nov ? 05:18:56 56° SE 05:18:57 56° SE 05:21:46 10° NE visible
